LEGION 2

Last updated on Thu Nov 06 2025 00:02:31 GMT+0000 (Coordinated Universal Time)

1 59626U 24081B 25309.29148464 .00006433 00000+0 32583-3 0 9999 2 59626 97.5256 24.3160 0003346 103.6430 256.5176 15.17329630 83609
UTC large
Height (km)
Speed (km/s)
/
Latitude / Longitude
Inclination (degrees)
Orbital Period (minutes)
Azimuth
Elevation
Range (km)
Doppler Factor

Next 0 passes for location: London (51.5072 / 0.1276)

Sorry there are no passes over London.